RH
70 68 94 50 35 35 42 44 51 51 49 59 55 47 46 48 46 41 50 53 53 53 54 54 54 55 57 58 57 57 57 56 58 57 54 50 46 43 41 39 35 33 32 31
63 97 88 85 59 32 32 39 39 45 43 59 57 55 57 53 54 48 54 59 59 58 58 61 60 56 56 58 59 61 61 59 58 56 53 50 47 44 41 40 38 35 34 28
97 98 97 93 77 61 44 43 37 36 38 42 55 57 64 57 62 53 55 54 56 62 66 67 68 66 63 61 59 58 57 56 55 54 52 50 48 45 43 41 37 34 30 28
97 96 98 79 77 64 45 35 36 37 39 54 63 66 66 63 65 58 60 64 64 68 69 68 66 65 62 61 60 59 60 62 62 67 64 56 50 44 39 37 35 33 33 35
86 90 72 70 75 78 62 49 46 53 52 64 70 79 71 68 66 65 62 67 68 68 68 67 66 64 62 62 66 72 82 87 79 88 85 75 61 56 53 56 54 50 51 52
68 71 66 90 81 99 99 89 76 68 72 71 74 78 69 65 66 69 67 68 71 68 67 67 69 67 64 82 92 93 97 89 98 89 99 100 99 86 84 77 67 58 46 38
79 72 85 95 85 98 87 83 70 75 73 79 86 86 75 68 68 71 69 68 65 63 61 62 61 62 78 97 100 98 94 90 100 99 95 98 100 100 100 93 69 55 55 53
79 73 73 92 90 84 94 87 73 69 85 90 87 84 80 79 77 74 66 64 75 83 88 88 89 78 92 100 99 98 99 98 97 96 94 100 100 100 100 100 91 80 74 69
87 82 76 85 87 100 94 89 90 90 92 93 91 86 82 77 89 88 88 88 87 91 98 97 92 93 96 99 100 100 99 99 99 99 99 99 100 100 100 100 99 94 88 83
81 81 79 85 90 90 96 84 90 98 91 95 96 98 98 93 96 90 87 86 83 95 98 98 95 98 98 99 97 98 98 99 99 98 98 100 100 99 100 100 100 98 96 92
84 84 81 88 96 91 96 96 96 96 96 95 93 90 97 94 98 93 90 86 94 97 99 99 98 98 98 98 97 98 97 93 100 100 98 100 100 95 100 100 99 97 98 96
84 86 87 87 96 95 94 92 90 92 95 94 96 98 96 98 95 92 90 90 90 98 98 97 98 97 97 98 97 96 86 83 96 100 99 100 100 97 97 100 100 97 97 88
83 80 87 93 92 90 91 90 94 98 92 84 83 83 85 92 94 93 91 92 90 90 95 97 98 99 100 99 98 97 89 91 100 100 99 99 100 100 100 100 98 99 97 90
82 85 83 84 92 97 98 95 93 92 88 82 79 79 80 81 81 79 77 84 95 95 91 89 94 99 100 100 100 100 97 90 99 100 99 98 100 100 100 100 99 100 95 72
78 86 86 82 79 78 81 82 84 88 88 83 74 70 71 79 81 81 85 80 80 100 98 94 94 90 94 100 100 100 100 99 92 90 100 100 100 100 100 99 99 94 84 41
82 80 81 82 82 83 84 86 92 95 98 99 95 92 87 84 81 85 95 95 98 98 99 100 97 90 84 91 97 100 100 99 100 96 87 91 97 99 100 97 92 88 60 32
84 76 75 76 79 82 91 98 100 100 100 100 100 100 100 99 94 84 85 92 93 92 88 94 99 94 94 96 100 100 100 100 99 99 98 94 86 87 90 89 88 80 42 31
74 72 75 78 80 95 100 100 100 100 100 100 99 97 98 98 95 96 89 85 82 81 80 80 90 94 95 93 90 96 95 100 96 99 98 98 98 97 95 95 96 84 44 30
74 76 75 77 83 88 90 97 99 100 99 98 100 97 95 97 99 100 100 94 95 99 92 81 78 81 88 89 89 91 97 94 92 96 97 98 98 98 97 97 98 97 95 65
80 79 76 78 83 86 90 90 86 76 67 61 57 65 74 91 100 100 100 100 100 100 100 97 83 72 71 77 81 86 92 97 99 90 100 99 98 97 98 97 97 97 97 97
86 84 85 89 90 91 92 92 90 88 88 87 82 71 53 38 34 56 82 95 97 99 100 100 98 86 77 73 73 77 85 92 98 100 99 99 96 98 98 98 97 97 97 97
97 95 96 93 92 90 72 51 21 13 15 21 25 16 8 7 9 20 20 24 51 79 96 100 100 99 98 95 90 89 93 97 100 100 100 100 99 89 89 97 98 98 97 97
97 98 96 95 96 74 53 21 18 17 13 11 11 11 10 8 7 7 8 8 7 7 8 14 37 84 98 98 98 98 97 98 98 97 96 96 97 98 98 96 95 95 95 96
97 97 97 96 94 65 49 26 24 24 20 19 17 15 12 10 8 7 6 6 6 5 5 5 4 5 6 11 40 82 97 98 98 97 97 97 97 97 98 98 98 98 97 97
96 96 97 96 96 66 54 39 28 26 26 22 16 12 9 8 7 6 5 5 5 4 4 4 4 4 4 4 4 4 4 4 12 41 81 93 97 96 96 96 96 96 97 97
96 96 96 96 96 84 58 40 30 27 26 22 18 15 14 13 12 11 11 11 10 10 10 9 8 7 6 6 6 5 5 4 4 4 3 3 3 9 36 82 96 97 97 96
96 96 96 96 96 95 79 30 26 26 26 23 21 19 21 22 23 24 22 19 18 17 16 15 13 12 10 8 7 7 6 6 6 5 5 5 4 4 4 4 6 42 90 97
Wind_Speed
10 5 10 14 23 23 22 18 11 8 9 4 4 6 6 6 3 5 13 14 15 16 17 19 21 23 25 26 25 25 26 28 26 26 27 29 30 30 31 32 32 33 33 33
13 11 11 15 16 23 23 25 22 21 14 6 2 2 5 6 6 5 10 14 15 16 17 17 18 18 18 17 17 16 17 19 21 23 25 27 29 30 32 33 33 36 34 33
1 4 3 5 18 24 28 29 23 25 18 16 14 16 9 9 7 7 8 10 11 11 12 12 13 14 15 16 17 18 19 20 23 25 28 30 31 33 33 34 34 34 33 32
2 8 2 2 3 13 19 21 24 24 22 18 17 16 15 14 11 10 11 11 10 11 11 11 12 13 15 16 18 20 22 23 25 27 30 32 34 34 34 33 32 31 31 30
1 4 7 3 2 5 20 20 21 21 21 18 16 12 14 16 13 12 11 12 12 12 13 14 15 16 18 20 21 21 21 22 24 24 27 30 29 28 29 28 27 27 26 25
3 1 1 2 2 3 9 5 9 14 15 16 15 13 10 12 12 11 12 13 14 16 17 19 19 20 21 20 21 21 24 24 24 24 25 30 30 24 23 21 22 21 20 19
2 1 0 1 3 7 3 1 3 8 14 15 13 13 12 11 12 13 14 16 18 20 22 23 25 25 23 23 23 26 24 25 24 25 26 27 29 22 20 17 17 18 18 17
0 0 2 1 5 1 2 2 3 7 12 12 10 10 11 13 14 16 17 18 19 21 22 21 21 24 23 24 27 26 27 24 22 23 25 26 27 19 19 17 15 16 17 17
3 2 1 3 4 5 7 6 6 7 7 7 7 8 9 10 10 11 13 14 17 18 19 22 20 23 23 23 26 28 25 23 24 25 25 24 23 19 20 19 17 17 18 17
1 1 0 4 4 4 4 3 2 3 1 2 4 5 5 6 8 9 10 12 15 12 16 19 21 22 22 22 20 21 23 23 22 22 23 22 23 20 22 20 17 16 17 17
1 1 2 5 5 6 8 6 5 5 6 6 6 6 7 10 10 10 11 11 11 6 11 16 18 16 16 17 18 19 19 22 22 22 21 23 22 18 20 20 18 18 20 20
3 3 4 4 6 6 6 6 6 7 7 8 8 9 11 11 11 11 12 12 10 9 9 10 12 12 12 16 16 16 17 19 17 20 20 18 18 16 19 20 19 21 20 20
3 5 5 7 6 8 9 10 10 9 10 11 12 14 16 17 17 17 15 14 12 11 10 10 13 13 15 14 14 14 14 12 13 17 19 19 19 15 17 19 19 20 21 22
7 6 5 6 7 10 12 13 14 15 16 17 18 18 18 18 18 17 16 17 17 15 14 13 13 12 12 15 13 14 13 13 12 14 18 19 21 19 19 20 21 23 24 24
12 10 9 10 10 11 13 15 16 16 16 18 21 22 23 23 23 22 21 22 20 20 19 17 16 17 16 14 15 14 13 13 13 12 16 21 24 23 22 22 24 26 25 24
7 9 12 15 17 16 16 17 17 18 19 20 20 20 18 18 20 24 25 25 24 23 24 21 20 20 19 18 16 15 17 15 14 13 13 13 16 19 20 21 23 23 23 23
18 20 22 21 19 15 15 16 17 19 22 22 21 22 22 21 22 21 23 25 25 25 25 25 24 23 21 22 21 19 16 17 14 14 15 13 12 12 14 18 21 22 23 25
20 19 18 18 17 16 17 19 19 21 22 20 21 22 20 20 20 19 20 19 21 23 23 24 25 25 25 25 22 21 22 20 18 18 16 15 17 18 20 21 22 23 25 28
11 11 11 12 11 11 10 12 13 13 13 13 12 13 14 15 16 16 17 17 17 18 22 25 27 27 27 27 25 23 23 22 20 21 22 20 20 19 21 23 25 26 28 30
8 7 3 0 2 3 4 4 5 6 7 9 10 11 11 12 12 12 13 14 15 15 17 17 19 22 25 27 27 26 25 25 24 21 22 23 22 23 24 24 25 26 28 30
7 6 4 1 2 4 6 8 11 13 14 14 14 14 15 15 15 14 13 13 13 13 15 15 15 16 19 21 24 25 26 26 25 26 27 26 26 25 27 27 28 29 30 30
10 9 6 4 6 8 11 14 13 12 12 11 11 12 12 12 13 13 14 14 14 13 13 13 13 14 15 17 20 22 24 26 27 28 28 30 32 32 33 33 32 32 32 34
15 13 10 8 8 10 13 12 10 10 10 9 9 10 10 10 10 12 14 14 14 14 14 14 14 14 14 15 18 20 22 25 27 28 30 32 33 33 33 34 35 37 38 38
16 15 12 11 9 9 11 11 10 10 10 10 10 11 12 12 11 11 12 12 13 14 14 14 15 16 17 18 19 20 21 23 25 28 29 31 33 34 36 38 40 42 43 43
16 14 14 14 11 8 9 11 10 11 11 11 11 11 11 12 12 13 14 14 15 15 16 16 16 17 18 19 20 21 22 24 26 26 27 28 29 30 31 32 33 35 38 38
13 12 12 15 13 8 11 12 13 12 12 13 12 12 12 13 14 14 14 14 15 16 17 18 18 19 20 21 22 23 24 25 26 27 27 29 30 31 32 31 31 31 31 32
10 10 12 14 14 12 12 14 13 12 12 13 14 14 14 15 16 17 18 19 20 20 21 22 23 23 24 24 25 26 27 28 29 30 30 31 32 32 33 32 33 33 32 31
Wind_Direction
203 294 241 241 221 207 200 215 221 205 264 349 348 20 28 46 27 233 229 225 223 225 225 228 234 239 244 246 246 246 248 251 249 251 252 252 253 255 258 259 261 261 261 264
246 261 226 223 229 223 219 214 225 243 259 224 191 65 351 329 329 257 228 230 233 240 244 242 238 236 233 234 237 238 243 251 255 256 258 260 261 261 263 265 265 265 265 263
309 170 190 255 226 216 213 217 222 229 240 248 263 270 308 292 291 254 225 225 229 228 220 216 218 226 234 240 247 252 255 258 262 264 265 266 266 266 265 265 264 261 261 262
168 161 214 271 287 225 222 226 230 233 236 240 284 260 262 272 269 248 233 228 217 210 212 220 228 235 246 252 255 260 262 262 265 269 272 272 270 269 267 263 259 257 254 255
196 262 309 330 344 211 207 225 226 225 232 252 262 249 259 254 248 240 234 225 214 214 223 236 248 256 260 263 264 261 261 263 272 277 285 282 280 271 264 258 254 251 250 250
216 258 331 352 30 118 160 215 238 225 230 242 245 248 251 235 236 234 232 229 231 235 242 250 258 262 263 264 262 260 264 265 268 277 274 286 285 280 264 258 251 246 243 241
194 269 57 76 119 130 178 153 201 205 212 221 234 229 230 231 236 243 253 258 259 258 257 256 256 259 259 257 258 263 269 277 272 275 280 279 284 274 263 260 250 241 233 230
40 322 92 138 144 99 57 50 117 169 184 199 206 217 229 244 254 261 264 266 268 267 263 263 255 253 255 256 259 268 276 273 276 280 278 278 283 261 258 259 253 237 230 225
5 8 22 150 145 91 108 104 119 134 158 184 214 239 252 260 264 270 270 281 279 283 257 249 253 249 251 254 262 268 267 271 275 276 273 268 283 250 251 256 254 237 226 220
343 314 159 172 170 189 160 149 162 173 207 208 225 256 273 293 282 292 294 295 309 273 244 242 245 252 257 256 264 271 268 270 269 271 273 264 278 261 244 246 248 234 223 218
288 231 184 190 193 209 193 205 225 235 247 260 263 271 274 276 288 294 302 315 328 299 252 252 257 260 257 261 270 281 282 278 267 260 259 269 275 255 231 235 236 226 214 209
204 196 180 181 201 215 225 234 253 256 257 263 268 266 265 272 279 284 291 302 317 311 271 257 259 261 271 288 279 286 293 288 255 251 249 278 278 244 230 232 233 222 216 210
234 244 234 231 228 231 243 254 255 255 261 267 272 273 272 273 276 277 280 286 290 296 293 286 268 264 271 291 301 300 305 295 258 252 251 255 272 253 239 232 230 211 208 210
260 246 245 244 245 249 253 258 263 269 274 277 278 277 274 271 270 271 273 271 274 277 280 284 284 272 272 289 297 309 309 308 283 255 253 252 261 259 246 235 220 209 210 213
251 247 254 265 270 267 264 264 267 271 277 284 285 281 272 268 266 267 270 271 263 262 266 270 276 277 276 277 287 291 304 306 304 297 262 247 250 254 250 234 219 215 217 219
238 257 275 277 274 273 270 269 270 271 278 285 288 289 289 283 270 262 260 265 268 266 255 260 265 272 274 276 269 280 296 299 300 295 294 284 262 252 244 234 222 222 224 226
264 275 286 287 282 275 270 268 266 269 276 279 280 279 283 287 287 278 266 266 266 265 258 248 256 261 267 270 271 273 274 281 295 293 290 274 264 248 234 228 229 232 232 235
268 276 280 282 284 277 275 274 275 277 280 276 276 282 288 288 289 285 282 278 274 272 270 259 254 257 260 266 271 275 275 273 272 282 284 280 271 256 244 241 241 242 242 245
276 281 289 290 285 287 290 287 286 289 289 290 293 295 297 295 294 292 289 286 284 280 277 269 260 257 257 260 266 268 267 262 269 265 272 276 271 267 264 260 256 252 246 248
284 279 247 176 63 40 20 0 336 320 311 306 303 298 299 300 303 307 307 299 289 291 292 285 272 262 259 259 262 264 266 266 267 265 273 267 271 270 267 266 265 261 258 259
259 222 200 177 339 323 316 310 304 296 291 290 291 293 293 292 288 289 298 309 307 298 296 292 284 271 264 262 262 261 264 266 267 267 268 271 271 269 267 268 267 265 264 263
235 222 216 255 287 300 315 316 314 315 308 295 293 297 301 300 294 291 291 291 298 305 304 305 298 288 280 274 267 265 264 266 269 270 270 270 272 277 267 264 265 266 265 265
234 227 227 248 276 305 324 326 322 324 324 319 315 314 315 312 310 309 302 299 298 296 295 293 294 297 293 288 283 279 276 274 274 274 274 273 274 273 271 272 272 270 268 269
235 238 241 246 269 307 327 327 323 319 315 319 323 325 324 323 320 310 304 301 302 303 303 301 300 298 294 291 288 287 286 283 281 279 278 277 277 276 276 275 274 272 270 271
234 233 242 252 258 294 316 318 318 319 322 325 325 325 323 318 315 316 316 316 316 313 310 309 308 304 301 298 295 293 290 287 285 285 283 282 281 280 281 280 281 279 272 268
235 235 246 261 264 280 309 316 315 315 320 319 318 319 321 321 317 315 315 314 313 312 312 310 308 305 303 301 299 297 295 293 290 290 288 286 283 282 281 281 282 280 277 274
227 240 254 269 274 273 297 311 309 310 312 312 313 316 319 319 317 316 315 314 313 313 311 309 306 304 302 300 298 297 295 294 292 291 288 286 285 284 283 282 280 277 277 276